Weather History for Franklin, NC

Change the Weather History Date:

Monday, November 19, 2012

  Actual Average (KTOC) Record (KTOC)
Temperature  
Mean Temperature 45 °F -  
Max Temperature 62 °F 63 °F - (-1)
Min Temperature 28 °F 41 °F - (-1)
Degree Days  
Heating Degree Days 20    
Moisture  
Dew Point 36 °F    
Average Humidity 87    
Maximum Humidity 100    
Minimum Humidity 48    
Precipitation  
Precipitation 0.00 in - - ()
Sea Level Pressure  
Sea Level Pressure 30.29 in    
Wind  
Wind Speed 0 mph (South)    
Max Wind Speed 6 mph    
Max Gust Speed -    
Visibility 7 miles    
Events Fog , Snow    
Averages and records for this station are not official NWS values.
T = Trace of Precipitation, MM = Missing Value Source: NWS Daily Summary

Daily Weather History Graph

Daily Weather History Graph

Search for Another Location

Airport:

Trip Planner

Search our weather history database for the weather conditions in past years. The results will help you decide how hot, cold, wet, or windy it might be!

Date:

Astronomy

Nov. 19, 2012 Rise Set
Actual Time 7:12 AM EST 5:25 PM EST
Civil Twilight 6:45 AM EST 5:52 PM EST
Nautical Twilight 6:14 AM EST 6:23 PM EST
Astronomical Twilight 5:44 AM EST 6:53 PM EST
Moon 12:20 PM EST (11/19) 11:45 PM EST (11/19)
Length of Visible Light 11h 06m
Length of Day
10h 12m
Waxing Crescent, 40% of the Moon is Illuminated
Nov 19
Waxing Crescent
Nov 20
First Quarter
Nov 28
Full
Dec 6
Last Quarter
Dec 13
New

Hourly Weather History & Observations

Time (EST) Temp. Windchill Dew Point Humidity Pressure Visibility Wind Dir Wind Speed Gust Speed Precip Events Conditions
12:15 AM 30.2 °F - 30.2 °F 100% 30.36 in 10.0 mi Calm Calm - N/A   Clear
12:35 AM 30.2 °F - 28.4 °F 93% 30.37 in 10.0 mi Calm Calm - N/A   Clear
12:55 AM 30.2 °F - 28.4 °F 93% 30.36 in 10.0 mi Calm Calm - N/A   Clear
1:15 AM 30.2 °F - 28.4 °F 93% 30.36 in 10.0 mi Calm Calm - N/A   Clear
1:35 AM 30.2 °F - 28.4 °F 93% 30.36 in 10.0 mi Calm Calm - N/A   Scattered Clouds
1:55 AM 30.2 °F - 28.4 °F 93% 30.36 in 10.0 mi Calm Calm - N/A   Overcast
2:15 AM 28.4 °F - 28.4 °F 100% 30.36 in 5.0 mi Calm Calm - N/A   Overcast
2:35 AM 30.2 °F - 28.4 °F 93% 30.36 in 0.2 mi Calm Calm - N/A Fog Light Freezing Fog
2:55 AM 30.2 °F - 30.2 °F 100% 30.36 in 0.2 mi Calm Calm - N/A Fog Light Freezing Fog
3:15 AM 30.2 °F - 28.4 °F 93% 30.36 in 0.2 mi Calm Calm - N/A Snow Light Snow
3:35 AM 30.2 °F - 30.2 °F 100% 30.35 in 0.5 mi Calm Calm - N/A Fog Light Freezing Fog
3:55 AM 30.2 °F - 30.2 °F 100% 30.35 in 0.2 mi Calm Calm - N/A Fog Light Freezing Fog
4:15 AM 32.0 °F - 30.2 °F 93% 30.35 in 0.2 mi Calm Calm - N/A Fog Light Freezing Fog
4:35 AM 32.0 °F - 30.2 °F 93% 30.34 in 0.2 mi Calm Calm - N/A Fog Light Freezing Fog
4:55 AM 32.0 °F - 30.2 °F 93% 30.35 in 0.2 mi Calm Calm - N/A Fog Light Freezing Fog
5:15 AM 32.0 °F - 30.2 °F 93% 30.35 in 0.2 mi Calm Calm - N/A Fog Light Freezing Fog
5:35 AM 32.0 °F - 30.2 °F 93% 30.35 in 0.2 mi Calm Calm - N/A Fog Light Freezing Fog
5:55 AM 32.0 °F - 30.2 °F 93% 30.35 in 0.2 mi Calm Calm - N/A Fog Light Freezing Fog
6:15 AM 32.0 °F - 30.2 °F 93% 30.35 in 0.2 mi Calm Calm - N/A Fog Light Freezing Fog
6:35 AM 32.0 °F - 30.2 °F 93% 30.35 in 0.2 mi Calm Calm - N/A Fog Light Freezing Fog
6:55 AM 32.0 °F - 30.2 °F 93% 30.35 in 0.5 mi Calm Calm - N/A Fog Light Freezing Fog
7:15 AM 30.2 °F - 30.2 °F 100% 30.36 in 0.5 mi Calm Calm - N/A Fog Light Freezing Fog
7:35 AM 32.0 °F - 30.2 °F 93% 30.36 in 0.5 mi Calm Calm - N/A Fog Light Freezing Fog
7:55 AM 32.0 °F - 30.2 °F 93% 30.36 in 0.2 mi Calm Calm - N/A Fog Light Freezing Fog
8:35 AM 32.0 °F - 30.2 °F 93% 30.37 in 0.2 mi Calm Calm - N/A Fog Light Freezing Fog
8:55 AM 32.0 °F - 32.0 °F 100% 30.36 in 0.5 mi Calm Calm - N/A Fog Fog
9:15 AM 32.0 °F - 32.0 °F 100% 30.35 in 1.2 mi Calm Calm - N/A   Overcast
9:35 AM 33.8 °F - 33.8 °F 100% 30.35 in 10.0 mi Calm Calm - N/A   Overcast
9:55 AM 35.6 °F - 35.6 °F 100% 30.36 in 10.0 mi Calm Calm - N/A   Overcast
10:15 AM 37.4 °F 34.9 °F 35.6 °F 93% 30.36 in 10.0 mi East 3.5 mph - N/A   Overcast
10:35 AM 39.2 °F - 37.4 °F 93% 30.36 in 10.0 mi Calm Calm - N/A   Overcast
10:55 AM 41.0 °F - 41.0 °F 100% 30.34 in 10.0 mi Calm Calm - N/A   Overcast
11:15 AM 42.8 °F - 42.8 °F 100% 30.33 in 10.0 mi Calm Calm - N/A   Overcast
11:35 AM 46.4 °F - 39.2 °F 76% 30.32 in 10.0 mi Calm Calm - N/A   Overcast
11:55 AM 48.2 °F - 39.2 °F 71% 30.30 in 10.0 mi Calm Calm - N/A   Overcast
12:15 PM 50.0 °F - 39.2 °F 66% 30.29 in 10.0 mi Calm Calm - N/A   Overcast
12:35 PM 51.8 °F - 41.0 °F 67% 30.28 in 10.0 mi Calm Calm - N/A   Overcast
12:55 PM 55.4 °F - 41.0 °F 58% 30.27 in 10.0 mi Calm Calm - N/A   Overcast
1:15 PM 57.2 °F - 41.0 °F 55% 30.26 in 10.0 mi Calm Calm - N/A   Mostly Cloudy
1:35 PM 59.0 °F - 42.8 °F 55% 30.25 in 10.0 mi Calm Calm - N/A   Scattered Clouds
1:55 PM 59.0 °F - 42.8 °F 55% 30.24 in 10.0 mi Calm Calm - N/A   Clear
2:15 PM 60.8 °F - 44.6 °F 55% 30.23 in 10.0 mi Calm Calm - N/A   Clear
2:35 PM 60.8 °F - 42.8 °F 52% 30.22 in 10.0 mi Calm Calm - N/A   Clear
2:55 PM 60.8 °F - 42.8 °F 52% 30.21 in 10.0 mi Calm Calm - N/A   Clear
3:15 PM 62.6 °F - 42.8 °F 48% 30.21 in 10.0 mi Calm Calm - N/A   Clear
3:35 PM 62.6 °F - 42.8 °F 48% 30.21 in 10.0 mi Calm Calm - N/A   Clear
3:55 PM 60.8 °F - 42.8 °F 52% 30.21 in 10.0 mi WSW 5.8 mph - N/A   Clear
4:15 PM 57.2 °F - 42.8 °F 59% 30.21 in 10.0 mi Calm Calm - N/A   Clear
4:35 PM 53.6 °F - 44.6 °F 72% 30.21 in 10.0 mi Calm Calm - N/A   Clear
4:55 PM 51.8 °F - 42.8 °F 71% 30.21 in 10.0 mi Calm Calm - N/A   Clear
5:15 PM 50.0 °F - 42.8 °F 76% 30.20 in 10.0 mi Calm Calm - N/A   Clear
5:35 PM 48.2 °F - 42.8 °F 82% 30.20 in 10.0 mi Calm Calm - N/A   Clear
5:55 PM 46.4 °F - 42.8 °F 87% 30.21 in 10.0 mi Calm Calm - N/A   Clear
6:15 PM 44.6 °F - 41.0 °F 87% 30.21 in 10.0 mi Calm Calm - N/A   Clear
6:35 PM 44.6 °F - 42.8 °F 93% 30.21 in 10.0 mi Calm Calm - N/A   Clear
6:55 PM 42.8 °F - 41.0 °F 93% 30.21 in 10.0 mi Calm Calm - N/A   Clear
7:15 PM 41.0 °F - 41.0 °F 100% 30.21 in 10.0 mi Calm Calm - N/A   Clear
7:35 PM 41.0 °F - 39.2 °F 93% 30.21 in 10.0 mi Calm Calm - N/A   Clear
7:55 PM 41.0 °F - 41.0 °F 100% 30.21 in 10.0 mi Calm Calm - N/A   Clear
8:15 PM 37.4 °F - 37.4 °F 100% 30.21 in 10.0 mi Calm Calm - N/A   Clear
8:35 PM 37.4 °F - 37.4 °F 100% 30.21 in 10.0 mi Calm Calm - N/A   Clear
8:55 PM 37.4 °F - 37.4 °F 100% 30.22 in 10.0 mi Calm Calm - N/A   Clear
9:15 PM 35.6 °F - 35.6 °F 100% 30.22 in 10.0 mi Calm Calm - N/A   Clear
9:35 PM 35.6 °F - 33.8 °F 93% 30.23 in 10.0 mi Calm Calm - N/A   Clear
10:15 PM 33.8 °F - 33.8 °F 100% 30.22 in 10.0 mi Calm Calm - N/A   Clear
10:35 PM 33.8 °F - 33.8 °F 100% 30.22 in 10.0 mi Calm Calm - N/A   Clear
10:55 PM 32.0 °F - 32.0 °F 100% 30.22 in 10.0 mi Calm Calm - N/A   Clear
11:15 PM 33.8 °F - 32.0 °F 93% 30.22 in 10.0 mi Calm Calm - N/A   Mostly Cloudy
11:35 PM 33.8 °F - 33.8 °F 100% 30.22 in 10.0 mi Calm Calm - N/A   Overcast
11:55 PM 35.6 °F - 35.6 °F 100% 30.22 in 10.0 mi Calm Calm - N/A   Overcast